Weather History for Pierre, SD

Change the Weather History Date:

Sunday, November 3, 2013

  Actual Average Record
Temperature  
Mean Temperature 48 °F 40 °F  
Max Temperature 58 °F 52 °F 72 °F (1978)
Min Temperature 37 °F 29 °F 2 °F (1991)
Degree Days  
Heating Degree Days 17 25  
Month to date heating degree days 63 73  
Since 1 July heating degree days 741 754  
Cooling Degree Days 0 0  
Month to date cooling degree days 0 0  
Year to date cooling degree days 853 868  
Moisture  
Dew Point 33 °F    
Average Humidity 66    
Maximum Humidity 92    
Minimum Humidity 40    
Precipitation  
Precipitation 0.00 in 0.03 in 0.44 in (1983)
Month to date precipitation T 0.09  
Year to date precipitation 22.84 18.79  
Snow  
Snow 0.00 in 0.10 in 2.00 in (2003)
Month to date snowfall 0.0 0.3  
Since 1 July snowfall 0.5 1.3  
Snow Depth 0.00 in    
Sea Level Pressure  
Sea Level Pressure 29.60 in    
Wind  
Wind Speed 12 mph (SSW)    
Max Wind Speed 28 mph    
Max Gust Speed 33 mph    
Visibility 10 miles    
Events      
T = Trace of Precipitation, MM = Missing Value Source: NWS Daily Summary

Daily Weather History Graph

Daily Weather History Graph

Search for Another Location

Airport:

Trip Planner

Search our weather history database for the weather conditions in past years. The results will help you decide how hot, cold, wet, or windy it might be!

Date:

Astronomy

Nov. 03, 2013 Rise Set
Actual Time 7:21 AM CST 5:27 PM CST
Civil Twilight 6:50 AM CST 5:57 PM CST
Nautical Twilight 6:16 AM CST 6:32 PM CST
Astronomical Twilight 5:42 AM CST 7:06 PM CST
Moon 7:27 AM CST (11/3) 5:42 PM CST (11/3)
Length of Visible Light 11h 06m
Length of Day
10h 05m
New Moon, 0% of the Moon is Illuminated
Nov 3
New Moon
Nov 9
First Quarter
Nov 17
Full
Nov 25
Last Quarter
Dec 2
New

Hourly Weather History & Observations

Time (CST) Temp. Windchill Dew Point Humidity Pressure Visibility Wind Dir Wind Speed Gust Speed Precip Events Conditions
12:53 AM 43.0 °F 36.4 °F 28.0 °F 56% 29.72 in 10.0 mi ESE 12.7 mph - N/A   Clear
1:53 AM 46.0 °F 37.8 °F 28.0 °F 50% 29.67 in 10.0 mi SSE 23.0 mph 29.9 mph N/A   Clear
1:53 AM 46.0 °F 37.6 °F 28.0 °F 50% 29.62 in 10.0 mi SSE 24.2 mph 33.4 mph N/A   Clear
2:53 AM 45.0 °F 36.6 °F 28.9 °F 53% 29.60 in 10.0 mi SSE 21.9 mph - N/A   Clear
3:53 AM 44.1 °F 36.2 °F 28.9 °F 55% 29.58 in 10.0 mi SSE 18.4 mph - N/A   Clear
4:53 AM 43.0 °F 36.4 °F 30.0 °F 60% 29.57 in 10.0 mi SE 12.7 mph - N/A   Clear
5:53 AM 42.1 °F 35.2 °F 30.0 °F 62% 29.57 in 10.0 mi SE 12.7 mph - N/A   Clear
6:53 AM 41.0 °F 33.9 °F 30.0 °F 65% 29.56 in 10.0 mi SE 12.7 mph - N/A   Clear
7:53 AM 41.0 °F 33.9 °F 30.0 °F 65% 29.56 in 10.0 mi SE 12.7 mph - N/A   Clear
8:53 AM 43.0 °F 36.8 °F 32.0 °F 65% 29.56 in 10.0 mi SE 11.5 mph - N/A   Clear
9:53 AM 48.0 °F - 32.0 °F 54% 29.54 in 10.0 mi SSE 12.7 mph - N/A   Clear
10:53 AM 53.1 °F - 33.1 °F 47% 29.53 in 10.0 mi SSE 9.2 mph - N/A   Clear
11:53 AM 57.0 °F - 33.1 °F 40% 29.53 in 10.0 mi WSW 8.1 mph - N/A   Clear
12:53 PM 57.0 °F - 34.0 °F 42% 29.52 in 10.0 mi West 9.2 mph - N/A   Clear
1:53 PM 55.9 °F - 33.1 °F 42% 29.51 in 10.0 mi NW 6.9 mph - N/A   Clear
2:53 PM 54.0 °F - 36.0 °F 51% 29.53 in 10.0 mi NW 12.7 mph - N/A   Clear
3:53 PM 54.0 °F - 36.0 °F 51% 29.55 in 10.0 mi NW 13.8 mph - N/A   Clear
4:53 PM 48.9 °F - 36.0 °F 61% 29.58 in 10.0 mi NW 12.7 mph - N/A   Clear
5:53 PM 43.0 °F 37.7 °F 35.1 °F 74% 29.62 in 10.0 mi NW 9.2 mph - N/A   Clear
6:53 PM 42.1 °F 37.1 °F 35.1 °F 76% 29.65 in 10.0 mi NW 8.1 mph - N/A   Clear
7:53 PM 44.1 °F 38.1 °F 35.1 °F 71% 29.66 in 10.0 mi NW 11.5 mph - N/A   Clear
8:53 PM 41.0 °F 35.8 °F 35.1 °F 79% 29.67 in 10.0 mi WNW 8.1 mph - N/A   Clear
9:53 PM 37.9 °F - 35.1 °F 89% 29.69 in 10.0 mi Calm Calm - N/A   Clear
10:53 PM 42.1 °F 37.1 °F 37.9 °F 85% 29.71 in 10.0 mi West 8.1 mph - N/A   Clear